DW5520 Weather Reports


Display with metric or nautical units.
time (UTC)temp
F
wind
direction
speed
MPH
gust
MPH
rain 1hr
in
rain 24hr
in
rain mn
in
humidity
%
barometer
mb
20210726005004 63 270 0.0 0.0 0.00 0.29 0.29 94 1012.7
20210726004504 64 270 0.0 0.0 0.00 0.29 0.29 94 1012.8
20210726004005 64 270 0.0 0.0 0.00 0.29 0.29 94 1012.6
20210726003504 64 270 0.0 0.0 0.00 0.29 0.29 94 1012.5
20210726002004 64 270 0.0 0.0 0.00 0.29 0.29 93 1012.4
20210726001504 65 270 0.0 0.0 0.00 0.29 0.29 92 1012.3
20210726001004 65 270 0.0 0.0 0.00 0.29 0.29 92 1012.1
20210726000504 66 270 0.0 0.0 0.00 0.29 0.29 91 1012.0
20210725235004 67 270 0.0 0.0 0.00 0.29 0.29 90 1011.9
20210725234504 67 270 0.0 0.0 0.00 0.29 0.29 89 1012.0
20210725233504 68 270 0.0 0.0 0.00 0.29 0.29 87 1012.1
20210725233004 69 270 0.0 0.0 0.00 0.29 0.29 86 1012.1
20210725232504 69 270 0.0 0.0 0.00 0.29 0.29 86 1012.0
20210725232005 70 270 0.0 0.0 0.00 0.29 0.29 85 1012.0
20210725231004 71 270 0.0 0.0 0.00 0.29 0.29 83 1012.1
20210725230505 71 270 0.0 0.0 0.00 0.29 0.29 82 1012.0
20210725230005 71 270 0.0 0.0 0.00 0.29 0.29 81 1012.0
20210725225504 71 270 0.0 0.0 0.00 0.29 0.29 80 1012.0
20210725224504 71 270 0.0 5.0 0.00 0.29 0.29 78 1011.9
20210725223004 72 271 3.0 10.0 0.00 0.29 0.29 76 1011.8
20210725222504 72 259 1.0 10.0 0.00 0.29 0.29 76 1011.7
20210725222004 72 265 2.0 10.0 0.00 0.29 0.29 75 1011.7
20210725221504 72 268 2.0 12.0 0.00 0.29 0.29 75 1011.6
20210725221004 72 270 6.0 12.0 0.00 0.29 0.29 74 1011.5
20210725220004 72 282 4.0 12.0 0.00 0.29 0.29 74 1011.5
20210725215504 72 263 5.0 7.0 0.00 0.29 0.29 75 1011.5
20210725215004 72 274 1.0 5.0 0.00 0.29 0.29 76 1011.5
20210725214505 72 280 0.0 5.0 0.00 0.29 0.29 77 1011.5
20210725214004 72 279 1.0 6.0 0.00 0.29 0.29 77 1011.5
20210725213004 72 267 1.0 12.0 0.00 0.29 0.29 76 1011.6
20210725212504 73 257 4.0 12.0 0.00 0.29 0.29 73 1011.4
20210725212004 73 239 3.0 14.0 0.00 0.29 0.29 74 1011.4
20210725211504 73 287 5.0 14.0 0.00 0.29 0.29 74 1011.4
20210725210504 73 260 7.0 12.0 0.00 0.29 0.29 73 1011.4
20210725210005 73 259 5.0 12.0 0.00 0.29 0.29 76 1011.4
20210725205504 72 271 3.0 12.0 0.00 0.29 0.29 78 1011.4
20210725204505 72 261 3.0 6.0 0.00 0.29 0.29 79 1011.4
20210725204004 72 267 1.0 10.0 0.00 0.29 0.29 78 1011.4
20210725203504 72 267 2.0 12.0 0.00 0.29 0.29 77 1011.4
20210725203005 72 280 4.0 12.0 0.00 0.29 0.29 77 1011.4
20210725202504 72 278 1.0 15.0 0.00 0.29 0.29 78 1011.4
20210725202004 72 269 5.0 15.0 0.00 0.29 0.29 80 1011.6
20210725201504 71 259 2.0 6.0 0.00 0.29 0.29 80 1011.5
20210725201004 71 260 1.0 6.0 0.00 0.29 0.29 82 1011.4
20210725200505 70 258 2.0 7.0 0.00 0.29 0.29 83 1011.5
20210725195504 71 244 5.0 10.0 0.00 0.29 0.29 79 1011.3
20210725195005 71 246 1.0 10.0 0.00 0.29 0.29 81 1011.5
20210725194504 70 250 0.0 9.0 0.00 0.29 0.29 82 1011.6
20210725193504 70 263 2.0 10.0 0.00 0.29 0.29 83 1011.6
20210725192004 69 243 2.0 9.0 0.00 0.29 0.29 85 1011.6
20210725191505 69 235 2.0 6.0 0.00 0.29 0.29 85 1011.6
20210725191004 69 230 1.0 7.0 0.00 0.29 0.29 86 1011.6
20210725190504 69 260 3.0 9.0 0.00 0.29 0.29 85 1011.6
20210725185504 69 253 3.0 10.0 0.00 0.29 0.29 84 1011.9
20210725185004 69 238 3.0 12.0 0.00 0.29 0.29 85 1011.8
20210725184004 68 239 2.0 6.0 0.00 0.29 0.29 90 1012.0
20210725183504 67 239 0.0 3.0 0.00 0.29 0.29 91 1012.0
20210725183005 67 239 0.0 5.0 0.00 0.29 0.29 92 1012.0
20210725182503 67 244 1.0 5.0 0.00 0.29 0.29 93 1012.1
20210725181504 66 244 0.0 12.0 0.00 0.29 0.29 94 1012.3
20210725181004 65 243 0.0 12.0 0.00 0.29 0.29 94 1012.3
20210725180504 65 243 2.0 12.0 0.00 0.29 0.29 95 1012.3
20210725180005 65 251 0.0 5.0 0.00 0.29 0.29 95 1012.3
20210725175504 65 252 0.0 3.0 0.00 0.29 0.29 96 1012.3
20210725175005 64 252 0.0 3.0 0.00 0.29 0.29 95 1012.4
20210725174504 64 252 0.0 7.0 0.00 0.29 0.29 96 1012.4
20210725173004 64 259 1.0 10.0 0.00 0.29 0.29 96 1012.5
20210725172504 64 258 3.0 10.0 0.00 0.29 0.29 95 1012.5
20210725172004 64 237 2.0 7.0 0.00 0.29 0.29 96 1012.4
20210725165504 63 260 1.0 9.0 0.00 0.29 0.29 97 1012.3
20210725165005 63 259 2.0 7.0 0.00 0.29 0.29 97 1012.3
20210725164504 63 261 0.0 12.0 0.00 0.29 0.29 97 1012.3
20210725164004 63 252 2.0 12.0 0.00 0.29 0.29 97 1012.2
20210725163504 63 266 4.0 12.0 0.00 0.29 0.29 97 1012.2
20210725163004 63 260 5.0 9.0 0.00 0.29 0.29 97 1012.2
20210725162504 62 239 2.0 9.0 0.00 0.29 0.29 97 1012.1
20210725162004 62 264 3.0 10.0 0.00 0.29 0.29 97 1012.2
20210725161504 62 261 5.0 10.0 0.00 0.29 0.29 97 1012.2
20210725161005 62 173 2.0 6.0 0.00 0.29 0.29 97 1012.1
20210725160004 62 169 0.0 3.0 0.00 0.29 0.29 97 1012.2
20210725155504 62 169 0.0 3.0 0.00 0.29 0.29 97 1012.2
20210725155004 62 168 1.0 3.0 0.00 0.29 0.29 99 1012.2
20210725154503 61 167 0.0 1.0 0.00 0.29 0.29 97 1012.2
20210725154004 61 167 0.0 1.0 0.00 0.29 0.29 97 1012.2
20210725153504 61 167 0.0 0.0 0.00 0.29 0.29 97 1012.2
20210725153004 61 167 0.0 0.0 0.02 0.29 0.29 97 1012.2
20210725152504 61 167 0.0 0.0 0.02 0.29 0.29 97 1012.3
20210725152004 60 167 0.0 0.0 0.02 0.29 0.29 97 1012.2
20210725151503 60 167 0.0 3.0 0.02 0.29 0.29 97 1012.3
20210725151004 60 167 0.0 3.0 0.02 0.29 0.29 97 1012.3
20210725150504 60 167 1.0 3.0 0.02 0.29 0.29 97 1012.3
20210725145504 60 167 0.0 2.0 0.02 0.29 0.29 97 1012.2
20210725145127 60 167 0.0 3.0 0.02 0.29 0.29 97 1012.2
20210725143004 60 167 0.0 1.0 0.01 0.27 0.27 97 1012.1
20210725142504 60 167 0.0 3.0 0.02 0.27 0.27 97 1012.1
20210725142005 60 167 0.0 3.0 0.02 0.27 0.27 97 1012.2
20210725141504 60 169 0.0 3.0 0.03 0.27 0.27 97 1012.1
20210725141005 60 169 1.0 5.0 0.04 0.27 0.27 97 1012.0
20210725140504 60 169 0.0 5.0 0.06 0.27 0.27 97 1012.0
20210725140005 60 169 1.0 5.0 0.07 0.27 0.27 97 1012.0
20210725135505 60 168 0.0 5.0 0.08 0.27 0.27 97 1012.0
20210725135005 60 168 0.0 5.0 0.08 0.27 0.27 97 1012.0
20210725133505 60 167 1.0 8.0 0.11 0.26 0.26 96 1012.3
20210725132505 60 153 2.0 9.0 0.12 0.25 0.25 96 1012.3
20210725132006 59 162 1.0 7.0 0.14 0.25 0.25 96 1012.4
20210725131506 59 163 2.0 7.0 0.15 0.24 0.24 96 1012.3
20210725130506 59 163 1.0 5.0 0.13 0.21 0.21 96 1012.3
20210725130006 59 162 0.0 9.0 0.13 0.20 0.20 96 1012.3
20210725124505 59 150 1.0 10.0 0.10 0.16 0.16 95 1012.5
20210725124006 59 167 0.0 10.0 0.10 0.15 0.15 95 1012.5
20210725123505 59 160 1.0 10.0 0.10 0.15 0.15 95 1012.7
20210725123006 59 165 1.0 5.0 0.10 0.15 0.15 95 1012.7
20210725122006 60 165 1.0 5.0 0.06 0.11 0.11 94 1012.8
20210725121005 60 165 0.0 6.0 0.04 0.09 0.09 94 1012.8
20210725115505 60 165 1.0 6.0 0.02 0.07 0.07 94 1012.6
20210725115006 60 159 1.0 5.0 0.01 0.06 0.06 94 1012.7
20210725114506 60 157 0.0 7.0 0.01 0.06 0.06 94 1012.6
20210725113505 60 188 1.0 10.0 0.01 0.05 0.05 94 1012.7
20210725113006 60 165 3.0 10.0 0.01 0.05 0.05 94 1012.8
20210725111506 59 167 1.0 6.0 0.03 0.05 0.05 94 1013.0
20210725111006 59 168 1.0 6.0 0.04 0.05 0.05 94 1013.1
20210725110506 59 164 2.0 6.0 0.04 0.05 0.05 94 1013.4
20210725104505 59 165 1.0 6.0 0.05 0.05 0.05 93 1014.1
20210725103505 59 164 1.0 6.0 0.04 0.04 0.04 92 1014.0
20210725103006 59 167 0.0 3.0 0.04 0.04 0.04 92 1014.0
20210725102505 59 167 0.0 3.0 0.03 0.03 0.03 91 1014.1
20210725102005 60 167 0.0 5.0 0.03 0.03 0.03 90 1014.2
20210725101505 60 170 1.0 6.0 0.02 0.02 0.02 89 1014.1
20210725101006 60 165 1.0 6.0 0.01 0.01 0.01 88 1014.1
20210725100505 61 173 1.0 7.0 0.01 0.01 0.01 86 1014.3
20210725100005 61 172 1.0 7.0 0.00 0.00 0.00 85 1014.4
20210725093506 62 154 3.0 10.0 0.00 0.01 0.00 83 1014.1
20210725093005 62 162 1.0 10.0 0.00 0.01 0.00 83 1014.0
20210725092506 61 153 2.0 9.0 0.00 0.01 0.00 83 1014.1
20210725091505 61 136 1.0 5.0 0.00 0.01 0.00 84 1014.2
20210725091005 61 124 1.0 5.0 0.00 0.01 0.00 84 1014.3
20210725090005 61 153 2.0 9.0 0.00 0.01 0.00 84 1014.4
20210725085505 61 147 0.0 5.0 0.00 0.01 0.00 85 1014.5
20210725084505 61 146 1.0 5.0 0.00 0.01 0.00 84 1014.7
20210725084006 61 146 1.0 3.0 0.00 0.01 0.00 83 1014.8
20210725083506 61 153 1.0 3.0 0.00 0.01 0.00 84 1014.9
20210725082006 60 160 0.0 3.0 0.00 0.01 0.00 84 1015.3
20210725080505 60 155 1.0 6.0 0.00 0.01 0.00 85 1015.5
20210725075005 60 141 3.0 9.0 0.00 0.01 0.00 85 1015.8
20210725074005 60 161 0.0 3.0 0.00 0.01 0.00 85 1016.2
20210725073005 60 161 0.0 3.0 0.00 0.01 0.00 84 1016.2
20210725072506 60 161 1.0 5.0 0.00 0.01 0.00 85 1016.5
20210725071505 58 160 0.0 3.0 0.00 0.01 0.00 86 1016.6
20210725070006 57 155 0.0 0.0 0.00 0.01 0.00 89 1016.8
20210725065505 57 155 0.0 0.0 0.00 0.01 0.00 89 1016.8
20210725065006 57 155 0.0 0.0 0.00 0.01 0.00 88 1016.8
20210725064505 57 155 0.0 0.0 0.00 0.01 0.00 88 1016.9
20210725063506 57 155 0.0 3.0 0.00 0.01 0.00 87 1016.9
20210725063005 57 158 2.0 3.0 0.00 0.01 0.00 88 1017.0
20210725062505 57 165 0.0 0.0 0.00 0.01 0.00 87 1017.2
20210725062005 57 165 0.0 0.0 0.00 0.01 0.00 86 1017.3
20210725061505 58 165 0.0 0.0 0.00 0.01 0.00 87 1017.4
20210725061006 57 165 0.0 3.0 0.00 0.01 0.00 88 1017.4
20210725060505 57 165 1.0 3.0 0.00 0.01 0.00 87 1017.5
20210725060006 57 165 0.0 0.0 0.00 0.01 0.00 87 1017.6
20210725055006 57 165 0.0 0.0 0.00 0.01 0.00 87 1017.6
20210725054505 57 165 0.0 0.0 0.00 0.01 0.00 87 1017.6
20210725053506 57 165 0.0 0.0 0.00 0.01 0.00 88 1017.6
20210725053006 57 165 0.0 0.0 0.00 0.01 0.00 88 1017.6
20210725052505 57 165 0.0 0.0 0.00 0.01 0.00 88 1017.6
20210725052006 57 165 0.0 0.0 0.00 0.01 0.00 88 1017.6
20210725051505 57 165 0.0 0.0 0.00 0.01 0.00 87 1017.7
20210725051006 57 165 0.0 0.0 0.00 0.01 0.00 87 1017.7
20210725050507 57 165 0.0 0.0 0.00 0.01 0.00 86 1017.8
20210725050005 58 165 0.0 0.0 0.00 0.01 0.00 85 1017.9
20210725045506 58 165 0.0 0.0 0.00 0.01 0.00 84 1017.9
20210725045005 58 165 0.0 0.0 0.00 0.01 0.00 84 1018.0
20210725044505 58 165 0.0 0.0 0.00 0.01 0.00 85 1018.0
20210725044006 58 165 0.0 0.0 0.00 0.01 0.00 84 1018.1
20210725043505 58 165 0.0 1.0 0.00 0.01 0.00 85 1018.1
20210725043005 58 165 0.0 2.0 0.00 0.01 0.00 85 1018.1
20210725042005 58 165 0.0 0.0 0.00 0.01 0.00 87 1018.3
20210725041505 58 165 0.0 0.0 0.00 0.01 0.00 86 1018.4
20210725041005 58 165 0.0 0.0 0.00 0.01 0.00 88 1018.4
20210725040505 58 165 0.0 0.0 0.00 0.01 0.00 88 1018.4
20210725035505 58 165 0.0 0.0 0.00 0.01 0.01 88 1018.4
20210725034005 58 165 0.0 0.0 0.00 0.01 0.01 87 1018.5
20210725033006 58 165 0.0 0.0 0.00 0.01 0.01 87 1018.7
20210725032506 58 165 0.0 0.0 0.00 0.01 0.01 87 1018.8
20210725032005 58 165 0.0 0.0 0.00 0.01 0.01 87 1018.8
20210725025505 59 165 0.0 0.0 0.00 0.01 0.01 85 1019.0
20210725025005 59 165 0.0 0.0 0.00 0.01 0.01 85 1019.1
20210725024505 59 165 0.0 0.0 0.00 0.01 0.01 84 1019.1
20210725023505 59 165 0.0 0.0 0.00 0.01 0.01 85 1019.1
20210725023005 59 165 0.0 0.0 0.00 0.01 0.01 85 1019.2
20210725022505 59 165 0.0 0.0 0.00 0.01 0.01 85 1019.2
20210725022005 59 165 0.0 3.0 0.00 0.01 0.01 85 1019.3
20210725021505 59 165 0.0 3.0 0.00 0.01 0.01 85 1019.3
20210725021005 59 165 0.0 3.0 0.00 0.01 0.01 85 1019.4
20210725020505 60 165 0.0 0.0 0.00 0.01 0.01 84 1019.4
20210725020005 60 165 0.0 0.0 0.00 0.01 0.01 84 1019.5
20210725015006 60 165 0.0 0.0 0.00 0.01 0.01 83 1019.7
20210725014005 61 165 0.0 3.0 0.00 0.01 0.01 82 1019.6
20210725013506 60 172 0.0 3.0 0.00 0.01 0.01 83 1019.6
20210725012005 60 179 0.0 0.0 0.00 0.01 0.01 83 1019.7
20210725011005 60 179 0.0 0.0 0.00 0.01 0.01 83 1019.6
20210725010006 61 179 0.0 0.0 0.00 0.01 0.01 83 1019.5